When you browse on this site, cookies collect data to enhance your experience and personalize the content and advertising you see.
Visit our Privacy Policy to learn more. By continuing to use the site, you agree to this use of cookies and data.
  • în România
  • Lista ţărilor
  • Pe 7 zile
  • Temperatura apei
  • Meteo pe hartă
  • Widget-uri
  • user-avatar
    Intrare

    Meteo pe oră la Mansoa

    Astăzi, 14 Noiembrie, Joi

    Timp Temperatura Precipitaţii Vânt Presiune Umiditate
    00:00 +27°C° 0 mm 2 m/s 756 mmHg 79%
    01:00 +27°C° 0 mm 1 m/s 755 mmHg 81%
    02:00 +26°C° 0 mm 1 m/s 755 mmHg 82%
    03:00 +26°C° 0 mm 1 m/s 755 mmHg 83%
    04:00 +26°C° 0 mm 1 m/s 755 mmHg 84%
    05:00 +25°C° 0 mm 1 m/s 755 mmHg 84%
    06:00 +27°C° 0 mm 1 m/s 756 mmHg 77%
    07:00 +28°C° 0 mm 1 m/s 756 mmHg 71%
    08:00 +29°C° 0 mm 1 m/s 757 mmHg 64%
    09:00 +32°C° 0 mm 1 m/s 756 mmHg 56%
    10:00 +34°C° 0 mm 1 m/s 756 mmHg 47%
    11:00 +37°C° 0 mm 1 m/s 756 mmHg 39%
    12:00 +37°C° 0 mm 1 m/s 755 mmHg 37%
    13:00 +39°C° 0 mm 1 m/s 754 mmHg 34%
    14:00 +39°C° 0 mm 1 m/s 753 mmHg 32%
    15:00 +37°C° 0 mm 2 m/s 753 mmHg 39%
    16:00 +35°C° 0 mm 3 m/s 753 mmHg 46%
    17:00 +33°C° 0 mm 3 m/s 753 mmHg 54%
    18:00 +31°C° 0 mm 3 m/s 754 mmHg 57%
    19:00 +30°C° 0 mm 3 m/s 755 mmHg 60%
    20:00 +29°C° 0 mm 3 m/s 756 mmHg 63%
    21:00 +28°C° 0 mm 2 m/s 756 mmHg 66%
    22:00 +27°C° 0 mm 2 m/s 756 mmHg 68%
    23:00 +27°C° 0 mm 2 m/s 756 mmHg 70%

    Mâine, 15 Noiembrie, Vineri

    Timp Temperatura Precipitaţii Vânt Presiune Umiditate
    00:00 +26°C° 0 mm 2 m/s 755 mmHg 72%
    01:00 +26°C° 0 mm 2 m/s 755 mmHg 73%
    02:00 +26°C° 0 mm 2 m/s 755 mmHg 75%
    03:00 +25°C° 0 mm 2 m/s 755 mmHg 76%
    04:00 +25°C° 0 mm 2 m/s 755 mmHg 77%
    05:00 +24°C° 0 mm 1 m/s 755 mmHg 78%
    06:00 +26°C° 0 mm 2 m/s 755 mmHg 71%
    07:00 +27°C° 0 mm 2 m/s 756 mmHg 65%
    08:00 +28°C° 0 mm 2 m/s 756 mmHg 58%
    09:00 +31°C° 0 mm 2 m/s 756 mmHg 49%
    10:00 +34°C° 0 mm 2 m/s 756 mmHg 40%
    11:00 +36°C° 0 mm 2 m/s 755 mmHg 31%
    12:00 +37°C° 0 mm 2 m/s 755 mmHg 30%
    13:00 +38°C° 0 mm 2 m/s 754 mmHg 29%
    14:00 +39°C° 0 mm 1 m/s 753 mmHg 27%
    15:00 +37°C° 0 mm 2 m/s 753 mmHg 36%
    16:00 +35°C° 0 mm 2 m/s 753 mmHg 45%
    17:00 +31°C° 0 mm 3 m/s 753 mmHg 53%
    18:00 +30°C° 0 mm 3 m/s 754 mmHg 55%
    19:00 +30°C° 0 mm 2 m/s 754 mmHg 57%
    20:00 +29°C° 0 mm 2 m/s 755 mmHg 59%
    21:00 +28°C° 0 mm 2 m/s 755 mmHg 60%
    22:00 +27°C° 0 mm 2 m/s 755 mmHg 61%
    23:00 +26°C° 0 mm 2 m/s 755 mmHg 62%

    Poimâine, 16 Noiembrie, Sâmbătă

    Timp Temperatura Precipitaţii Vânt Presiune Umiditate
    00:00 +25°C° 0 mm 2 m/s 755 mmHg 66%
    01:00 +25°C° 0 mm 2 m/s 754 mmHg 71%
    02:00 +24°C° 0 mm 2 m/s 754 mmHg 76%
    03:00 +24°C° 0 mm 2 m/s 754 mmHg 75%
    04:00 +24°C° 0 mm 2 m/s 754 mmHg 74%
    05:00 +23°C° 0 mm 1 m/s 754 mmHg 74%
    06:00 +24°C° 0 mm 2 m/s 755 mmHg 67%
    07:00 +25°C° 0 mm 2 m/s 755 mmHg 61%
    08:00 +26°C° 0 mm 2 m/s 756 mmHg 55%
    09:00 +30°C° 0 mm 1 m/s 755 mmHg 47%
    10:00 +33°C° 0 mm 1 m/s 755 mmHg 38%
    11:00 +34°C° 0 mm 0 m/s 755 mmHg 30%
    12:00 +37°C° 0 mm 1 m/s 754 mmHg 29%
    13:00 +37°C° 0 mm 1 m/s 754 mmHg 29%
    14:00 +37°C° 0 mm 1 m/s 753 mmHg 28%
    15:00 +36°C° 0 mm 2 m/s 753 mmHg 34%
    16:00 +34°C° 0 mm 2 m/s 753 mmHg 40%
    17:00 +31°C° 0 mm 2 m/s 753 mmHg 46%
    18:00 +30°C° 0 mm 2 m/s 754 mmHg 51%
    19:00 +29°C° 0 mm 2 m/s 755 mmHg 55%
    20:00 +28°C° 0 mm 2 m/s 755 mmHg 60%
    21:00 +28°C° 0 mm 2 m/s 755 mmHg 63%
    22:00 +28°C° 0 mm 2 m/s 756 mmHg 66%
    23:00 +27°C° 0 mm 2 m/s 756 mmHg 69%

    17 Noiembrie, Duminică

    Timp Temperatura Precipitaţii Vânt Presiune Umiditate
    00:00 +27°C° 0 mm 2 m/s 755 mmHg 72%
    01:00 +26°C° 0 mm 2 m/s 755 mmHg 75%
    02:00 +26°C° 0 mm 2 m/s 755 mmHg 78%
    03:00 +25°C° 0 mm 2 m/s 755 mmHg 79%
    04:00 +25°C° 0 mm 1 m/s 755 mmHg 80%
    05:00 +25°C° 0 mm 1 m/s 755 mmHg 81%
    06:00 +26°C° 0 mm 1 m/s 755 mmHg 75%
    07:00 +27°C° 0 mm 1 m/s 756 mmHg 69%
    08:00 +29°C° 0 mm 1 m/s 756 mmHg 62%
    09:00 +31°C° 0 mm 1 m/s 756 mmHg 52%
    10:00 +33°C° 0 mm 1 m/s 756 mmHg 41%
    11:00 +37°C° 0 mm 2 m/s 755 mmHg 31%
    12:00 +37°C° 0 mm 1 m/s 755 mmHg 30%
    13:00 +39°C° 0 mm 1 m/s 754 mmHg 28%
    14:00 +39°C° 0 mm 1 m/s 753 mmHg 27%
    15:00 +37°C° 0 mm 1 m/s 753 mmHg 33%
    16:00 +35°C° 0 mm 1 m/s 753 mmHg 39%
    17:00 +34°C° 0 mm 2 m/s 753 mmHg 45%
    18:00 +31°C° 0 mm 2 m/s 754 mmHg 50%
    19:00 +30°C° 0 mm 2 m/s 754 mmHg 56%
    20:00 +28°C° 0 mm 2 m/s 755 mmHg 61%
    21:00 +28°C° 0 mm 2 m/s 755 mmHg 62%
    22:00 +27°C° 0 mm 2 m/s 755 mmHg 63%
    23:00 +27°C° 0 mm 2 m/s 755 mmHg 64%

    18 Noiembrie, Luni

    Timp Temperatura Precipitaţii Vânt Presiune Umiditate
    00:00 +26°C° 0 mm 2 m/s 755 mmHg 63%
    01:00 +26°C° 0 mm 2 m/s 755 mmHg 61%
    02:00 +25°C° 0 mm 1 m/s 754 mmHg 60%
    03:00 +25°C° 0 mm 1 m/s 754 mmHg 61%
    04:00 +25°C° 0 mm 1 m/s 754 mmHg 62%
    05:00 +23°C° 0 mm 0 m/s 754 mmHg 63%
    06:00 +26°C° 0 mm 1 m/s 755 mmHg 59%
    07:00 +28°C° 0 mm 1 m/s 755 mmHg 55%
    08:00 +29°C° 0 mm 1 m/s 755 mmHg 51%
    09:00 +32°C° 0 mm 1 m/s 755 mmHg 43%
    10:00 +33°C° 0 mm 0 m/s 755 mmHg 36%
    11:00 +36°C° 0 mm 0 m/s 755 mmHg 29%
    12:00 +36°C° 0 mm 0 m/s 754 mmHg 28%
    13:00 +39°C° 0 mm 1 m/s 753 mmHg 28%
    14:00 +39°C° 0 mm 1 m/s 753 mmHg 28%
    15:00 +36°C° 0 mm 1 m/s 753 mmHg 34%
    16:00 +35°C° 0 mm 2 m/s 753 mmHg 40%
    17:00 +32°C° 0 mm 2 m/s 753 mmHg 46%
    18:00 +31°C° 0 mm 2 m/s 754 mmHg 52%
    19:00 +30°C° 0 mm 2 m/s 754 mmHg 59%
    20:00 +28°C° 0 mm 2 m/s 755 mmHg 65%
    21:00 +28°C° 0 mm 2 m/s 755 mmHg 64%
    22:00 +27°C° 0 mm 2 m/s 755 mmHg 64%
    23:00 +27°C° 0 mm 3 m/s 755 mmHg 63%

    19 Noiembrie, Marţi

    Timp Temperatura Precipitaţii Vânt Presiune Umiditate
    00:00 +26°C° 0 mm 2 m/s 755 mmHg 63%
    01:00 +26°C° 0 mm 1 m/s 755 mmHg 62%
    02:00 +25°C° 0 mm 1 m/s 754 mmHg 62%
    03:00 +23°C° 0 mm 0 m/s 754 mmHg 63%
    04:00 +23°C° 0 mm 0 m/s 754 mmHg 64%
    05:00 +22°C° 0 mm 0 m/s 754 mmHg 64%
    06:00 +24°C° 0 mm 0 m/s 755 mmHg 60%
    07:00 +25°C° 0 mm 0 m/s 755 mmHg 55%
    08:00 +27°C° 0 mm 0 m/s 755 mmHg 50%
    09:00 +31°C° 0 mm 1 m/s 755 mmHg 42%
    10:00 +34°C° 0 mm 1 m/s 755 mmHg 34%
    11:00 +37°C° 0 mm 2 m/s 755 mmHg 25%
    12:00 +38°C° 0 mm 2 m/s 754 mmHg 24%
    13:00 +39°C° 0 mm 1 m/s 754 mmHg 22%
    14:00 +40°C° 0 mm 1 m/s 753 mmHg 21%
    15:00 +37°C° 0 mm 1 m/s 753 mmHg 27%
    16:00 +36°C° 0 mm 2 m/s 753 mmHg 33%
    17:00 +34°C° 0 mm 2 m/s 753 mmHg 39%
    18:00 +31°C° 0 mm 2 m/s 754 mmHg 46%
    19:00 +29°C° 0 mm 2 m/s 754 mmHg 52%
    20:00 +28°C° 0 mm 2 m/s 755 mmHg 59%
    21:00 +27°C° 0 mm 2 m/s 755 mmHg 61%
    22:00 +27°C° 0 mm 2 m/s 755 mmHg 63%
    23:00 +26°C° 0 mm 2 m/s 755 mmHg 65%
    Arată mai mult